FW6151 Weather Reports


time (UTC)temp
F
wind
direction
speed
knots
gust
knots
rain 1hr
in
rain 24hr
in
rain mn
in
humidity
%
barometer
mb
20260905002100 69 315 0.0 1.7 0.00 0.00 0.00 73 1020.8
20260905001557 69 315 0.0 3.5 0.00 0.00 0.00 73 1020.8
20260905001056 68 314 1.7 3.5 0.00 0.00 0.00 73 1020.8
20260905000554 68 126 0.0 2.6 0.00 0.00 0.00 72 1020.5
20260905000054 68 127 0.0 2.6 0.00 0.00 0.00 73 1020.4
20260904235555 68 355 0.0 0.0 0.00 0.00 0.00 75 1020.4
20260904235055 68 355 0.0 0.0 0.00 0.00 0.00 75 1020.5
20260904234556 68 355 0.0 0.0 0.00 0.00 0.00 75 1020.5
20260904234054 68 355 0.0 0.0 0.00 0.00 0.00 75 1020.3
20260904233551 69 355 0.0 0.0 0.00 0.00 0.00 75 1020.3
20260904233053 69 355 0.0 0.0 0.00 0.00 0.00 75 1020.1
20260904232550 69 355 0.0 0.0 0.00 0.00 0.00 74 1020.1
20260904232049 69 355 0.0 0.0 0.00 0.00 0.00 74 1020.1
20260904231548 69 355 0.0 0.0 0.00 0.00 0.00 74 1020.0
20260904231048 69 355 0.0 0.0 0.00 0.00 0.00 74 1020.0
20260904230547 69 355 0.0 0.0 0.00 0.00 0.00 73 1020.0
20260904230046 70 355 0.0 0.0 0.00 0.00 0.00 73 1020.0
20260904225545 70 355 0.0 0.0 0.00 0.00 0.00 73 1019.9
20260904225046 70 355 0.0 0.0 0.00 0.00 0.00 73 1019.9
20260904224545 70 355 0.0 0.0 0.00 0.00 0.00 72 1019.9
20260904224047 70 355 0.0 0.0 0.00 0.00 0.00 72 1019.7
20260904223544 71 355 0.0 0.0 0.00 0.00 0.00 71 1019.8
20260904223041 71 355 0.0 0.0 0.00 0.00 0.00 71 1019.8
20260904222540 71 355 0.0 0.0 0.00 0.00 0.00 71 1019.7
20260904222044 71 355 0.0 0.0 0.00 0.00 0.00 71 1019.7
20260904221539 71 355 0.0 0.0 0.00 0.00 0.00 70 1019.7
20260904221038 72 355 0.0 0.0 0.00 0.00 0.00 70 1019.7
20260904220537 72 355 0.0 0.0 0.00 0.00 0.00 70 1019.7
20260904220055 72 355 0.0 0.0 0.00 0.00 0.00 69 1019.6
20260904215536 72 355 0.0 0.0 0.00 0.00 0.00 69 1019.6
20260904215037 72 355 0.0 0.0 0.00 0.00 0.00 68 1019.5
20260904214539 73 355 0.0 0.0 0.00 0.00 0.00 68 1019.5
20260904214034 73 355 0.0 0.0 0.00 0.00 0.00 67 1019.4
20260904213537 73 355 0.0 0.0 0.00 0.00 0.00 67 1019.4
20260904213035 73 355 0.0 1.7 0.00 0.00 0.00 66 1019.3
20260904212534 74 355 0.0 1.7 0.00 0.00 0.00 66 1019.4
20260904212034 74 355 0.0 1.7 0.00 0.00 0.00 65 1019.2
20260904211537 74 355 0.0 1.7 0.00 0.00 0.00 65 1019.3
20260904211037 74 355 0.0 1.7 0.00 0.00 0.00 64 1019.2
20260904210533 74 355 0.0 0.9 0.00 0.00 0.00 64 1019.1
20260904210042 75 355 0.0 0.9 0.00 0.00 0.00 64 1019.1
20260904205533 75 355 0.0 2.6 0.00 0.00 0.00 63 1019.1
20260904205036 75 355 0.0 2.6 0.00 0.00 0.00 62 1019.1
20260904204534 76 355 0.0 0.9 0.00 0.00 0.00 62 1019.1
20260904204032 76 355 0.0 0.0 0.00 0.00 0.00 61 1019.0
20260904203532 76 355 0.0 0.0 0.00 0.00 0.00 61 1019.0
20260904203044 76 355 0.0 0.0 0.00 0.00 0.00 60 1019.0
20260904202532 77 355 0.0 0.0 0.00 0.00 0.00 59 1019.1
20260904202031 77 355 0.0 0.0 0.00 0.00 0.00 58 1019.0
20260904201531 78 355 0.0 0.0 0.00 0.00 0.00 58 1019.0
20260904201031 78 355 0.0 0.0 0.00 0.00 0.00 57 1019.0
20260904200534 78 355 0.0 0.0 0.00 0.00 0.00 57 1019.0
20260904200031 79 355 0.0 0.0 0.00 0.00 0.00 57 1018.9
20260904195533 79 355 0.0 0.0 0.00 0.00 0.00 56 1018.8
20260904195031 79 355 0.0 0.0 0.00 0.00 0.00 55 1018.8
20260904194531 80 355 0.0 0.0 0.00 0.00 0.00 54 1018.8
20260904194030 80 355 0.0 0.0 0.00 0.00 0.00 53 1018.9
20260904193531 81 355 0.0 0.0 0.00 0.00 0.00 53 1018.8
20260904193032 81 355 0.0 0.0 0.00 0.00 0.00 53 1018.8
20260904192530 81 355 0.0 0.0 0.00 0.00 0.00 51 1018.9
20260904192029 82 355 0.0 0.0 0.00 0.00 0.00 51 1018.8
20260904191541 82 355 0.0 0.0 0.00 0.00 0.00 50 1018.8
20260904191029 82 355 0.0 0.0 0.00 0.00 0.00 50 1018.8
20260904190531 82 355 0.0 0.0 0.00 0.00 0.00 49 1018.7
20260904190036 83 355 0.0 0.0 0.00 0.00 0.00 49 1018.7
20260904185528 83 355 0.0 0.0 0.00 0.00 0.00 48 1018.6
20260904185028 83 360 0.0 0.0 0.00 0.00 0.00 48 1018.5
20260904184531 83 360 0.0 0.0 0.00 0.00 0.00 48 1018.5
20260904184029 84 360 0.0 0.9 0.00 0.00 0.00 47 1018.5
20260904183529 84 360 0.0 3.5 0.00 0.00 0.00 47 1018.4
20260904183028 84 360 0.0 3.5 0.00 0.00 0.00 47 1018.4
20260904182528 84 240 0.0 2.6 0.00 0.00 0.00 47 1018.3
20260904182028 84 271 0.0 2.6 0.00 0.00 0.00 47 1018.3
20260904181528 84 269 0.0 3.5 0.00 0.00 0.00 46 1018.3
20260904181027 85 178 0.0 3.5 0.00 0.00 0.00 46 1018.1
20260904180528 85 62 0.0 3.5 0.00 0.00 0.00 46 1018.1
20260904180027 85 285 0.0 3.5 0.00 0.00 0.00 46 1017.9
20260904175527 85 285 0.9 4.3 0.00 0.00 0.00 46 1017.9
20260904175027 85 169 0.9 4.3 0.00 0.00 0.00 46 1018.0
20260904174531 85 304 1.7 4.3 0.00 0.00 0.00 46 1017.9
20260904174027 86 324 0.9 4.3 0.00 0.00 0.00 45 1017.9
20260904173526 86 207 0.9 4.3 0.00 0.00 0.00 45 1017.8
20260904173037 86 250 1.7 4.3 0.00 0.00 0.00 45 1017.8
20260904172527 86 184 0.9 4.3 0.00 0.00 0.00 45 1017.8
20260904172026 86 190 1.7 4.3 0.00 0.00 0.00 44 1017.7
20260904171527 87 346 0.9 3.5 0.00 0.00 0.00 44 1017.6
20260904171026 87 313 0.0 4.3 0.00 0.00 0.00 44 1017.8
20260904170525 87 146 1.7 5.2 0.00 0.00 0.00 44 1017.7
20260904170038 87 301 1.7 5.2 0.00 0.00 0.00 43 1017.7
20260904165526 87 205 1.7 7.0 0.00 0.00 0.00 43 1017.6
20260904165025 87 225 0.9 7.0 0.00 0.00 0.00 43 1017.6
20260904164526 88 220 1.7 7.0 0.00 0.00 0.00 42 1017.6
20260904164025 88 225 0.9 7.0 0.00 0.00 0.00 42 1017.6
20260904163524 88 257 1.7 7.0 0.00 0.00 0.00 41 1017.6
20260904163024 88 322 1.7 7.8 0.00 0.00 0.00 41 1017.6
20260904162528 88 342 0.0 7.8 0.00 0.00 0.00 41 1017.7
20260904162023 88 264 0.9 7.8 0.00 0.00 0.00 41 1017.6
20260904161525 88 225 1.7 7.8 0.00 0.00 0.00 40 1017.7
20260904161023 89 273 1.7 7.0 0.00 0.00 0.00 40 1017.6
20260904160526 89 177 0.9 6.1 0.00 0.00 0.00 40 1017.7
20260904160023 89 169 1.7 6.1 0.00 0.00 0.00 40 1017.7
20260904155526 89 225 1.7 5.2 0.00 0.00 0.00 40 1017.7
20260904155022 89 328 1.7 4.3 0.00 0.00 0.00 40 1017.7
20260904154526 89 237 0.9 8.7 0.00 0.00 0.00 40 1017.7
20260904154027 89 180 2.6 8.7 0.00 0.00 0.00 40 1017.7
20260904153525 89 275 1.7 4.3 0.00 0.00 0.00 40 1017.7
20260904153022 89 238 1.7 4.3 0.00 0.00 0.00 40 1017.7
20260904152523 89 224 0.9 6.1 0.00 0.00 0.00 40 1017.7
20260904152022 89 311 1.7 6.1 0.00 0.00 0.00 40 1017.8
20260904151521 89 279 0.0 5.2 0.00 0.00 0.00 41 1017.7
20260904151021 89 339 0.0 5.2 0.00 0.00 0.00 40 1017.7
20260904150526 89 101 1.7 10.4 0.00 0.00 0.00 39 1017.7
20260904150031 89 69 0.9 10.4 0.00 0.00 0.00 40 1017.8
20260904145520 89 330 0.0 3.5 0.00 0.00 0.00 40 1017.7
20260904145020 89 168 0.9 3.5 0.00 0.00 0.00 40 1017.8
20260904144520 90 63 0.9 3.5 0.00 0.00 0.00 40 1017.8
20260904144022 90 184 1.7 4.3 0.00 0.00 0.00 40 1017.9
20260904143519 90 179 1.7 4.3 0.00 0.00 0.00 40 1018.0
20260904143019 90 114 0.9 3.5 0.00 0.00 0.00 40 1018.0
20260904142518 90 331 0.9 5.2 0.00 0.00 0.00 40 1018.1
20260904142018 90 68 0.9 7.0 0.00 0.00 0.00 40 1018.2
20260904141529 90 197 0.9 7.8 0.00 0.00 0.00 40 1018.2
20260904141015 90 72 2.6 7.8 0.00 0.00 0.00 40 1018.3
20260904140515 90 313 0.9 5.2 0.00 0.00 0.00 40 1018.4
20260904140036 90 339 1.7 5.2 0.00 0.00 0.00 40 1018.5
20260904135515 89 223 0.9 7.8 0.00 0.00 0.00 40 1018.4
20260904135014 89 234 1.7 7.8 0.00 0.00 0.00 40 1018.5
20260904134515 89 204 2.6 7.0 0.00 0.00 0.00 40 1018.6
20260904134013 89 11 2.6 7.0 0.00 0.00 0.00 41 1018.7
20260904133512 89 211 2.6 5.2 0.00 0.00 0.00 41 1018.8
20260904133013 90 243 0.9 4.3 0.00 0.00 0.00 41 1018.9
20260904132513 90 355 0.9 4.3 0.00 0.00 0.00 41 1018.9
20260904132012 90 209 1.7 7.8 0.00 0.00 0.00 40 1018.9
20260904131511 90 116 0.9 7.8 0.00 0.00 0.00 40 1018.9
20260904131012 90 88 1.7 6.1 0.00 0.00 0.00 39 1019.1
20260904130515 90 84 1.7 6.1 0.00 0.00 0.00 40 1019.0
20260904130010 90 138 1.7 9.6 0.00 0.00 0.00 39 1019.1
20260904125509 90 91 0.9 6.1 0.00 0.00 0.00 40 1019.2
20260904125009 90 18 1.7 6.1 0.00 0.00 0.00 40 1019.1
20260904124509 89 259 1.7 7.8 0.00 0.00 0.00 40 1019.2
20260904124008 89 109 0.9 7.8 0.00 0.00 0.00 41 1019.2
20260904123508 89 126 1.7 8.7 0.00 0.00 0.00 41 1019.3
20260904123007 89 80 2.6 8.7 0.00 0.00 0.00 40 1019.5
20260904122508 89 59 1.7 7.0 0.00 0.00 0.00 40 1019.5
20260904122006 89 174 0.9 7.0 0.00 0.00 0.00 41 1019.5
20260904121507 90 355 2.6 7.0 0.00 0.00 0.00 39 1019.6
20260904121004 90 103 0.9 7.0 0.00 0.00 0.00 40 1019.6
20260904120504 88 336 2.6 7.0 0.00 0.00 0.00 40 1019.7
20260904120010 89 193 0.0 7.0 0.00 0.00 0.00 40 1019.8
20260904115503 88 111 1.7 7.0 0.00 0.00 0.00 40 1019.8
20260904115003 88 307 0.9 4.3 0.00 0.00 0.00 40 1019.8
20260904114506 89 242 0.9 7.0 0.00 0.00 0.00 39 1019.9
20260904114002 89 65 0.0 2.6 0.00 0.00 0.00 39 1019.9
20260904113501 89 247 0.0 4.3 0.00 0.00 0.00 39 1020.0
20260904113003 89 62 0.9 4.3 0.00 0.00 0.00 40 1020.0
20260904112601 89 133 1.7 4.3 0.00 0.00 0.00 39 1020.1
20260904112058 89 182 1.7 3.5 0.00 0.00 0.00 40 1020.1
20260904111558 87 230 0.0 2.6 0.00 0.00 0.00 42 1020.2
20260904111057 87 230 0.0 5.2 0.00 0.00 0.00 41 1020.3
20260904110556 87 326 0.9 5.2 0.00 0.00 0.00 41 1020.4
20260904110058 88 336 1.7 3.5 0.00 0.00 0.00 40 1020.4
20260904105556 88 179 0.0 4.3 0.00 0.00 0.00 42 1020.4
20260904105053 86 179 0.9 4.3 0.00 0.00 0.00 42 1020.5
20260904104552 86 178 0.0 3.5 0.00 0.00 0.00 42 1020.6
20260904104050 85 128 0.9 3.5 0.00 0.00 0.00 43 1020.7
20260904103550 85 100 0.9 4.3 0.00 0.00 0.00 44 1020.9
20260904103049 85 323 0.9 7.0 0.00 0.00 0.00 44 1020.9
20260904102548 85 194 0.9 7.0 0.00 0.00 0.00 43 1020.9
20260904102050 85 177 0.0 3.5 0.00 0.00 0.00 43 1021.1
20260904101552 85 177 0.0 3.5 0.00 0.00 0.00 43 1021.2
20260904101044 84 190 0.0 3.5 0.00 0.00 0.00 44 1021.3
20260904100541 84 177 0.9 3.5 0.00 0.00 0.00 43 1021.3
20260904100043 84 176 0.0 3.5 0.00 0.00 0.00 42 1021.4
20260904095539 83 176 0.9 4.3 0.00 0.00 0.00 43 1021.4
20260904095037 83 246 0.9 3.5 0.00 0.00 0.00 45 1021.5
20260904094542 83 181 0.9 3.5 0.00 0.00 0.00 44 1021.6
20260904094036 82 181 0.0 1.7 0.00 0.00 0.00 45 1021.7
20260904093534 82 181 0.0 1.7 0.00 0.00 0.00 46 1021.7
20260904093040 82 181 0.0 0.9 0.00 0.00 0.00 45 1021.7
20260904092532 82 181 0.0 0.0 0.00 0.00 0.00 45 1021.9
20260904092033 82 195 0.0 2.6 0.00 0.00 0.00 45 1021.8
20260904091535 82 194 0.0 2.6 0.00 0.00 0.00 44 1021.7
20260904091029 82 22 0.0 1.7 0.00 0.00 0.00 47 1021.8
20260904090528 81 22 0.0 1.7 0.00 0.00 0.00 48 1021.8
20260904090026 80 22 0.0 0.0 0.00 0.00 0.00 50 1021.8
20260904085524 80 22 0.0 0.0 0.00 0.00 0.00 52 1021.9
20260904085023 79 22 0.0 0.0 0.00 0.00 0.00 53 1021.9
20260904084522 78 319 0.0 0.0 0.00 0.00 0.00 55 1021.9
20260904084021 76 319 0.0 0.0 0.00 0.00 0.00 56 1022.0
20260904083519 75 327 0.0 0.9 0.00 0.00 0.00 58 1022.0
20260904083018 75 332 0.0 0.9 0.00 0.00 0.00 59 1022.0
20260904082517 74 331 0.0 2.6 0.00 0.00 0.00 60 1022.1
20260904082014 74 332 0.0 2.6 0.00 0.00 0.00 60 1022.0
20260904081513 73 333 0.0 2.6 0.00 0.00 0.00 62 1022.0
20260904081011 72 332 0.0 3.5 0.00 0.00 0.00 62 1022.0
20260904080510 71 331 0.0 4.3 0.00 0.00 0.00 64 1022.0
20260904080009 71 312 0.9 3.5 0.00 0.00 0.00 65 1022.1
20260904075510 70 326 0.0 2.6 0.00 0.00 0.00 66 1022.1
20260904075006 69 317 0.0 5.2 0.00 0.00 0.00 66 1022.1
20260904074504 69 314 1.7 6.1 0.00 0.00 0.00 67 1022.1
20260904074003 68 314 0.0 3.5 0.00 0.00 0.00 69 1022.1
20260904073506 67 323 0.9 3.5 0.00 0.00 0.00 69 1022.1
20260904073001 67 323 0.9 3.5 0.00 0.00 0.00 71 1022.1
20260904072501 66 319 0.9 3.5 0.00 0.00 0.00 73 1022.3
20260904072100 65 240 0.0 1.7 0.00 0.00 0.00 74 1022.4
20260904071559 65 240 0.0 2.6 0.00 0.00 0.00 74 1022.5
20260904071059 64 242 0.9 2.6 0.00 0.00 0.00 75 1022.5
20260904070601 64 217 0.9 2.6 0.00 0.00 0.00 75 1022.5
20260904070058 64 216 0.0 3.5 0.00 0.00 0.00 76 1022.6
20260904065557 63 244 0.0 3.5 0.00 0.00 0.00 76 1022.6
20260904065057 63 342 0.0 4.3 0.00 0.00 0.00 77 1022.8
20260904064616 62 200 1.7 4.3 0.00 0.00 0.00 77 1022.8
20260904064057 62 202 0.0 3.5 0.00 0.00 0.00 78 1022.8
20260904063556 62 218 0.9 3.5 0.00 0.00 0.00 78 1022.8
20260904063113 61 211 0.0 2.6 0.00 0.00 0.00 79 1022.9
20260904062556 61 210 0.0 3.5 0.00 0.00 0.00 79 1023.0
20260904062059 61 322 0.9 4.3 0.00 0.00 0.00 79 1022.9
20260904061555 61 321 2.6 4.3 0.00 0.00 0.00 79 1022.9
20260904061055 60 288 2.6 4.3 0.00 0.00 0.00 80 1022.9
20260904060555 60 326 1.7 4.3 0.00 0.00 0.00 80 1022.8
20260904060109 60 311 2.6 4.3 0.00 0.00 0.00 81 1022.9
20260904055554 60 313 0.9 3.5 0.00 0.00 0.00 81 1022.9
20260904055053 59 311 1.7 5.2 0.00 0.00 0.00 81 1022.9
20260904054554 59 309 2.6 5.2 0.00 0.00 0.00 81 1023.0
20260904054053 59 317 1.7 5.2 0.00 0.00 0.00 81 1023.0
20260904053551 59 324 2.6 5.2 0.00 0.00 0.00 81 1022.9
20260904053151 59 326 1.7 4.3 0.00 0.00 0.00 81 1022.9
20260904052551 59 312 0.9 3.5 0.00 0.00 0.00 81 1022.9
20260904052050 59 292 0.9 7.0 0.00 0.00 0.00 81 1022.9
20260904051549 59 319 3.5 7.0 0.00 0.00 0.00 81 1022.9
20260904051048 59 332 2.6 5.2 0.00 0.00 0.00 81 1023.0
20260904050548 59 313 0.9 5.2 0.00 0.00 0.00 81 1023.0
20260904050050 59 326 1.7 5.2 0.00 0.00 0.00 81 1023.0
20260904045547 59 239 0.0 5.2 0.00 0.00 0.00 81 1023.0
20260904045047 59 316 1.7 5.2 0.00 0.00 0.00 81 1023.1
20260904044546 59 319 2.6 5.2 0.00 0.00 0.00 81 1023.1
20260904044046 59 319 2.6 4.3 0.00 0.00 0.00 81 1023.1
20260904043547 59 298 1.7 4.3 0.00 0.00 0.00 81 1023.2
20260904043046 60 306 1.7 4.3 0.00 0.00 0.00 81 1023.2
20260904042544 60 334 1.7 5.2 0.00 0.00 0.00 80 1023.1
20260904042043 60 317 2.6 5.2 0.00 0.00 0.00 81 1023.2
20260904041543 60 325 2.6 5.2 0.00 0.00 0.00 80 1023.3
20260904041041 60 325 1.7 4.3 0.00 0.00 0.00 81 1023.3
20260904040543 60 316 0.0 2.6 0.00 0.00 0.00 81 1023.4
20260904040044 60 305 0.0 4.3 0.00 0.00 0.00 80 1023.4
20260904035540 60 313 1.7 5.2 0.00 0.00 0.00 80 1023.5
20260904035039 60 321 2.6 5.2 0.00 0.00 0.00 80 1023.6
20260904034544 60 306 0.9 5.2 0.00 0.00 0.00 80 1023.6
20260904034038 60 311 1.7 5.2 0.00 0.00 0.00 80 1023.7
20260904033538 60 314 0.0 3.5 0.00 0.00 0.00 80 1023.6
20260904033038 60 317 0.0 3.5 0.00 0.00 0.00 80 1023.7
20260904032537 60 311 0.0 2.6 0.00 0.00 0.00 80 1023.6
20260904032036 60 309 0.9 3.5 0.00 0.00 0.00 80 1023.7
20260904031536 60 307 0.9 3.5 0.00 0.00 0.00 80 1023.7
20260904031036 60 282 0.0 1.7 0.00 0.00 0.00 79 1023.7
20260904030535 60 281 0.0 4.3 0.00 0.00 0.00 79 1023.8
20260904030037 60 295 0.0 5.2 0.00 0.00 0.00 80 1023.7
20260904025534 60 287 1.7 5.2 0.00 0.00 0.00 79 1023.8
20260904025033 61 311 2.6 5.2 0.00 0.00 0.00 79 1023.8
20260904024533 61 321 1.7 4.3 0.00 0.00 0.00 79 1023.9
20260904024033 61 325 2.6 5.2 0.00 0.00 0.00 79 1023.9
20260904023531 61 309 2.6 5.2 0.00 0.00 0.00 79 1023.9
20260904023037 61 315 0.9 3.5 0.00 0.00 0.00 79 1023.9
20260904022630 61 314 1.7 3.5 0.00 0.00 0.00 78 1023.9
20260904022029 61 313 1.7 4.3 0.00 0.00 0.00 78 1024.0
20260904021541 61 313 0.0 3.5 0.00 0.00 0.00 78 1024.0
20260904021027 61 312 0.9 1.7 0.00 0.00 0.00 78 1024.1
20260904020527 62 313 0.0 0.0 0.00 0.00 0.00 77 1024.0
20260904020028 62 313 0.0 4.3 0.00 0.00 0.00 77 1024.1
20260904015526 62 313 1.7 4.3 0.00 0.00 0.00 77 1024.2
20260904015028 62 313 0.0 3.5 0.00 0.00 0.00 77 1024.2
20260904014526 62 313 0.9 4.3 0.00 0.00 0.00 77 1024.2
20260904014025 62 316 1.7 5.2 0.00 0.00 0.00 77 1024.2
20260904013528 62 317 2.6 5.2 0.00 0.00 0.00 77 1024.2
20260904013024 62 309 1.7 4.3 0.00 0.00 0.00 77 1024.2
20260904012524 62 317 2.6 4.3 0.00 0.00 0.00 76 1024.4
20260904012024 62 315 2.6 4.3 0.00 0.00 0.00 76 1024.5
20260904011522 63 322 2.6 4.3 0.00 0.00 0.00 76 1024.4
20260904011021 63 315 2.6 4.3 0.00 0.00 0.00 76 1024.4
20260904010521 63 310 1.7 3.5 0.00 0.00 0.00 76 1024.4
20260904010021 63 309 0.0 3.5 0.00 0.00 0.00 75 1024.4
20260904005520 63 316 0.0 3.5 0.00 0.00 0.00 75 1024.5
20260904005024 63 321 1.7 4.3 0.00 0.00 0.00 75 1024.5
20260904004524 63 319 1.7 4.3 0.00 0.00 0.00 75 1024.6
20260904004020 63 315 1.7 4.3 0.00 0.00 0.00 75 1024.6
20260904003520 63 324 1.7 4.3 0.00 0.00 0.00 75 1024.6
20260904003024 63 305 2.6 4.3 0.00 0.00 0.00 75 1024.5
20260904002519 63 319 2.6 5.2 0.00 0.00 0.00 75 1024.5